TimeCST,TemperatureF,Dew PointF,Humidity,Sea Level PressureIn,VisibilityMPH,Wind Direction,Wind SpeedMPH,Gust SpeedMPH,PrecipitationIn,Events,Conditions,WindDirDegrees,DateUTC
12:15 AM,19.4,19.4,100,29.87,7.0,ENE,12.7,17.3,N/A,,Overcast,60,2013-12-04 06:15:00
12:35 AM,19.4,17.6,93,29.87,10.0,ENE,10.4,17.3,N/A,,Overcast,70,2013-12-04 06:35:00
12:55 AM,19.4,17.6,93,29.86,10.0,ENE,10.4,-,N/A,Snow,Light Snow,60,2013-12-04 06:55:00
1:15 AM,19.4,17.6,93,29.86,10.0,ENE,10.4,-,N/A,,Overcast,70,2013-12-04 07:15:00
1:35 AM,19.4,17.6,93,29.85,10.0,ENE,13.8,19.6,N/A,,Overcast,70,2013-12-04 07:35:00
1:55 AM,19.4,17.6,93,29.86,10.0,ENE,15.0,19.6,N/A,,Overcast,70,2013-12-04 07:55:00
2:15 AM,19.4,17.6,93,29.86,10.0,ENE,11.5,-,N/A,,Mostly Cloudy,70,2013-12-04 08:15:00
2:35 AM,19.4,15.8,86,29.87,10.0,ENE,10.4,-,N/A,,Overcast,70,2013-12-04 08:35:00
2:55 AM,19.4,15.8,86,29.87,10.0,ENE,10.4,17.3,N/A,,Overcast,60,2013-12-04 08:55:00
3:15 AM,19.4,15.8,86,29.86,10.0,ENE,11.5,-,N/A,Snow,Light Snow,60,2013-12-04 09:15:00
3:35 AM,17.6,15.8,93,29.85,4.0,ENE,11.5,19.6,N/A,Snow,Light Snow,60,2013-12-04 09:35:00
3:55 AM,17.6,15.8,93,29.85,4.0,ENE,10.4,16.1,N/A,Snow,Light Snow,60,2013-12-04 09:55:00
4:15 AM,17.6,15.8,93,29.84,1.8,ENE,12.7,18.4,N/A,Snow,Light Snow,60,2013-12-04 10:15:00
4:35 AM,17.6,14.0,86,29.85,1.5,NE,10.4,16.1,N/A,Snow,Light Snow,40,2013-12-04 10:35:00
4:55 AM,15.8,12.2,86,29.86,1.8,NE,11.5,-,N/A,Snow,Light Snow,40,2013-12-04 10:55:00
5:15 AM,15.8,12.2,86,29.84,1.8,NE,10.4,17.3,N/A,Snow,Light Snow,50,2013-12-04 11:15:00
5:35 AM,15.8,12.2,86,29.82,1.8,NE,13.8,17.3,N/A,Snow,Light Snow,50,2013-12-04 11:35:00
5:55 AM,15.8,12.2,86,29.83,1.5,NE,10.4,17.3,N/A,Snow,Light Snow,50,2013-12-04 11:55:00
6:15 AM,15.8,12.2,86,29.82,2.0,ENE,13.8,-,N/A,Snow,Light Snow,60,2013-12-04 12:15:00
6:35 AM,14.0,12.2,93,29.81,3.0,NE,12.7,19.6,N/A,Snow,Light Snow,50,2013-12-04 12:35:00
6:55 AM,14.0,12.2,93,29.83,4.0,NE,10.4,18.4,N/A,Snow,Light Snow,50,2013-12-04 12:55:00
7:15 AM,14.0,10.4,86,29.82,2.5,NE,12.7,17.3,N/A,Snow,Light Snow,50,2013-12-04 13:15:00
7:35 AM,14.0,10.4,86,29.79,2.0,NE,13.8,20.7,N/A,Snow,Light Snow,50,2013-12-04 13:35:00
7:55 AM,14.0,10.4,86,29.80,1.8,NE,11.5,18.4,N/A,Snow,Light Snow,50,2013-12-04 13:55:00
8:15 AM,14.0,10.4,86,29.79,1.2,NE,13.8,18.4,N/A,Snow,Light Snow,50,2013-12-04 14:15:00
8:35 AM,14.0,10.4,86,29.79,1.0,NE,12.7,20.7,N/A,Snow,Light Snow,50,2013-12-04 14:35:00
8:55 AM,14.0,10.4,86,29.79,1.2,NE,10.4,17.3,N/A,Snow,Light Snow,50,2013-12-04 14:55:00
9:15 AM,14.0,10.4,86,29.80,1.0,NE,9.2,-,N/A,Snow,Light Snow,50,2013-12-04 15:15:00
9:35 AM,14.0,10.4,86,29.79,0.5,NE,9.2,-,N/A,Snow,Snow,50,2013-12-04 15:35:00
9:55 AM,14.0,10.4,86,29.78,0.5,NE,12.7,-,N/A,Snow,Light Snow,50,2013-12-04 15:55:00
10:16 AM,14.0,10.4,86,29.77,0.2,NE,11.5,19.6,N/A,Snow,Snow,40,2013-12-04 16:16:00
10:35 AM,14.0,10.4,86,29.77,0.5,NE,12.7,16.1,N/A,Snow,Light Snow,40,2013-12-04 16:35:00
10:55 AM,14.0,10.4,86,29.74,0.2,NE,13.8,17.3,N/A,Snow,Snow,40,2013-12-04 16:55:00
11:16 AM,14.0,10.4,86,29.75,0.8,NNE,12.7,18.4,N/A,Snow,Light Snow,30,2013-12-04 17:16:00
11:35 AM,14.0,10.4,86,29.73,0.8,NNE,12.7,17.3,N/A,Snow,Light Snow,20,2013-12-04 17:35:00
11:55 AM,14.0,10.4,86,29.73,0.8,NNE,12.7,-,N/A,Snow,Light Snow,20,2013-12-04 17:55:00
12:16 PM,14.0,10.4,86,29.69,0.5,NNE,15.0,18.4,N/A,Snow,Snow,30,2013-12-04 18:16:00
12:35 PM,14.0,10.4,86,29.68,0.5,NNE,12.7,19.6,N/A,Snow,Snow,30,2013-12-04 18:35:00
12:55 PM,15.8,12.2,86,29.67,0.5,NE,12.7,18.4,N/A,Snow,Light Snow,40,2013-12-04 18:55:00
1:16 PM,15.8,12.2,86,29.68,0.8,NE,8.1,-,N/A,Snow,Light Snow,40,2013-12-04 19:16:00
1:35 PM,15.8,12.2,86,29.66,0.8,NE,10.4,-,N/A,Snow,Light Snow,40,2013-12-04 19:35:00
1:55 PM,15.8,12.2,86,29.64,0.8,NNE,10.4,16.1,N/A,Snow,Light Snow,30,2013-12-04 19:55:00
2:15 PM,15.8,12.2,86,29.63,0.5,NNE,10.4,-,N/A,Snow,Snow,30,2013-12-04 20:15:00
2:35 PM,15.8,12.2,86,29.63,0.5,NNE,13.8,-,N/A,Snow,Light Snow,30,2013-12-04 20:35:00
2:55 PM,15.8,12.2,86,29.62,0.8,NNE,11.5,-,N/A,Snow,Light Snow,30,2013-12-04 20:55:00
3:15 PM,15.8,12.2,86,29.63,1.0,NNE,10.4,-,0.01,Snow,Light Snow,20,2013-12-04 21:15:00
3:35 PM,15.8,12.2,86,29.63,1.0,North,12.7,-,0.01,Snow,Light Snow,360,2013-12-04 21:35:00
3:56 PM,15.8,12.2,86,29.62,1.0,North,13.8,-,N/A,Snow,Light Snow,360,2013-12-04 21:56:00
4:15 PM,15.8,12.2,86,29.64,0.8,NNW,11.5,-,N/A,Snow,Light Snow,340,2013-12-04 22:15:00
4:35 PM,14.0,12.2,93,29.62,1.2,NNW,10.4,-,N/A,Snow,Snow,340,2013-12-04 22:35:00
4:55 PM,14.0,10.4,86,29.63,1.5,NNW,13.8,-,0.01,Snow,Light Snow,330,2013-12-04 22:55:00
5:15 PM,12.2,10.4,92,29.62,1.2,NNW,17.3,-,N/A,Snow,Light Snow,340,2013-12-04 23:15:00
5:35 PM,12.2,10.4,92,29.62,1.5,NNW,19.6,-,N/A,Snow,Light Snow,330,2013-12-04 23:35:00
5:55 PM,12.2,8.6,85,29.60,1.8,NNW,16.1,-,N/A,Snow,Light Snow,340,2013-12-04 23:55:00
6:15 PM,12.2,8.6,85,29.61,1.8,NNW,16.1,-,N/A,Snow,Light Snow,340,2013-12-05 00:15:00
6:35 PM,10.4,8.6,92,29.60,2.0,NNW,17.3,-,N/A,Snow,Light Snow,330,2013-12-05 00:35:00
6:55 PM,10.4,8.6,92,29.61,1.5,NNW,16.1,-,N/A,Snow,Light Snow,330,2013-12-05 00:55:00
7:15 PM,10.4,8.6,92,29.62,1.5,NW,15.0,-,N/A,Snow,Light Snow,320,2013-12-05 01:15:00
7:35 PM,10.4,8.6,92,29.61,1.5,NNW,17.3,21.9,N/A,Snow,Light Snow,330,2013-12-05 01:35:00
7:55 PM,10.4,8.6,92,29.60,1.2,NNW,17.3,-,N/A,Snow,Light Snow,330,2013-12-05 01:55:00
8:15 PM,10.4,6.8,85,29.60,1.5,NNW,16.1,-,N/A,Snow,Light Snow,330,2013-12-05 02:15:00
8:35 PM,10.4,6.8,85,29.61,1.5,NW,15.0,-,N/A,Snow,Light Snow,320,2013-12-05 02:35:00
8:55 PM,10.4,6.8,85,29.61,1.5,NW,17.3,-,N/A,Snow,Light Snow,310,2013-12-05 02:55:00
9:15 PM,10.4,6.8,85,29.61,1.5,NW,18.4,23.0,N/A,Snow,Light Snow,320,2013-12-05 03:15:00
9:35 PM,8.6,6.8,92,29.62,2.0,NW,16.1,21.9,N/A,Snow,Light Snow,320,2013-12-05 03:35:00
9:55 PM,8.6,6.8,92,29.63,1.5,NW,16.1,20.7,N/A,Snow,Light Snow,320,2013-12-05 03:55:00
10:15 PM,8.6,6.8,92,29.63,2.0,NW,12.7,20.7,N/A,Snow,Light Snow,320,2013-12-05 04:15:00
10:35 PM,8.6,6.8,92,29.63,1.8,NW,15.0,18.4,N/A,Snow,Light Snow,310,2013-12-05 04:35:00
10:55 PM,8.6,6.8,92,29.64,1.5,NW,15.0,-,N/A,Snow,Light Snow,310,2013-12-05 04:55:00
11:15 PM,8.6,5.0,85,29.64,1.8,NW,15.0,-,N/A,Snow,Light Snow,310,2013-12-05 05:15:00
11:35 PM,8.6,5.0,85,29.65,1.2,WNW,16.1,20.7,N/A,Snow,Light Snow,300,2013-12-05 05:35:00
11:55 PM,8.6,5.0,85,29.65,1.8,WNW,16.1,20.7,N/A,Snow,Light Snow,290,2013-12-05 05:55:00